When you browse on this site, cookies collect data to enhance your experience and personalize the content and advertising you see.
Visit our Privacy Policy to learn more. By continuing to use the site, you agree to this use of cookies and data.

Météo par heure à Botvinevo

Ce jour, 4 Juillet, Samedi

Heure Température Précipitation Vent Pression Humidité
00:00 +20°C° 0 mm 2 m/s 745 mmHg 91%
01:00 +20°C° 0 mm 2 m/s 745 mmHg 91%
02:00 +19°C° 0 mm 2 m/s 745 mmHg 91%
03:00 +19°C° 0 mm 3 m/s 745 mmHg 91%
04:00 +19°C° 0 mm 3 m/s 745 mmHg 91%
05:00 +20°C° 0 mm 3 m/s 745 mmHg 91%
06:00 +21°C° 0 mm 3 m/s 745 mmHg 88%
07:00 +24°C° 0 mm 3 m/s 745 mmHg 84%
08:00 +25°C° 0 mm 3 m/s 745 mmHg 80%
09:00 +26°C° 0.2 mm 3 m/s 745 mmHg 76%
10:00 +27°C° 0.2 mm 3 m/s 745 mmHg 73%
11:00 +28°C° 0.2 mm 3 m/s 745 mmHg 69%
12:00 +28°C° 0.3 mm 3 m/s 745 mmHg 69%
13:00 +28°C° 0.3 mm 3 m/s 745 mmHg 69%
14:00 +29°C° 0.3 mm 3 m/s 744 mmHg 69%
15:00 +28°C° 0.3 mm 3 m/s 744 mmHg 73%
16:00 +27°C° 0.3 mm 2 m/s 744 mmHg 78%
17:00 +27°C° 0.3 mm 2 m/s 744 mmHg 82%
18:00 +25°C° 0.4 mm 2 m/s 744 mmHg 83%
19:00 +24°C° 0.4 mm 2 m/s 744 mmHg 84%
20:00 +23°C° 0.4 mm 1 m/s 744 mmHg 86%
21:00 +23°C° 0 mm 1 m/s 744 mmHg 88%
22:00 +21°C° 0 mm 2 m/s 744 mmHg 89%
23:00 +21°C° 0 mm 2 m/s 744 mmHg 91%

Demain, 5 Juillet, Dimanche

Heure Température Précipitation Vent Pression Humidité
00:00 +20°C° 0.2 mm 2 m/s 744 mmHg 92%
01:00 +21°C° 0.2 mm 1 m/s 744 mmHg 93%
02:00 +21°C° 0.2 mm 1 m/s 745 mmHg 94%
03:00 +21°C° 0.7 mm 1 m/s 744 mmHg 95%
04:00 +21°C° 0.7 mm 1 m/s 744 mmHg 95%
05:00 +20°C° 0.7 mm 2 m/s 744 mmHg 96%
06:00 +22°C° 0.2 mm 1 m/s 744 mmHg 93%
07:00 +22°C° 0.2 mm 1 m/s 744 mmHg 91%
08:00 +23°C° 0.2 mm 1 m/s 744 mmHg 88%
09:00 +24°C° 0.6 mm 1 m/s 744 mmHg 85%
10:00 +25°C° 0.6 mm 1 m/s 744 mmHg 83%
11:00 +26°C° 0.6 mm 1 m/s 744 mmHg 80%
12:00 +25°C° 0.9 mm 1 m/s 744 mmHg 81%
13:00 +25°C° 0.9 mm 2 m/s 744 mmHg 82%
14:00 +24°C° 0.9 mm 2 m/s 744 mmHg 83%
15:00 +24°C° 0.3 mm 2 m/s 744 mmHg 84%
16:00 +24°C° 0.3 mm 2 m/s 744 mmHg 85%
17:00 +24°C° 0.3 mm 2 m/s 743 mmHg 87%
18:00 +23°C° 0 mm 2 m/s 744 mmHg 89%
19:00 +21°C° 0 mm 2 m/s 744 mmHg 91%
20:00 +21°C° 0 mm 2 m/s 744 mmHg 93%
21:00 +20°C° 0 mm 2 m/s 744 mmHg 93%
22:00 +20°C° 0 mm 2 m/s 744 mmHg 93%
23:00 +19°C° 0 mm 2 m/s 744 mmHg 94%

Après-demain, 6 Juillet, Lundi

Heure Température Précipitation Vent Pression Humidité
00:00 +20°C° 0 mm 1 m/s 744 mmHg 93%
01:00 +19°C° 0 mm 1 m/s 744 mmHg 92%
02:00 +19°C° 0 mm 1 m/s 744 mmHg 92%
03:00 +19°C° 0 mm 1 m/s 744 mmHg 91%
04:00 +20°C° 0 mm 1 m/s 744 mmHg 91%
05:00 +19°C° 0 mm 0 m/s 744 mmHg 90%
06:00 +22°C° 0 mm 1 m/s 744 mmHg 86%
07:00 +23°C° 0 mm 1 m/s 744 mmHg 81%
08:00 +24°C° 0 mm 1 m/s 744 mmHg 77%
09:00 +25°C° 0 mm 1 m/s 744 mmHg 73%
10:00 +26°C° 0 mm 1 m/s 744 mmHg 70%
11:00 +27°C° 0 mm 2 m/s 744 mmHg 66%
12:00 +28°C° 0 mm 2 m/s 744 mmHg 65%
13:00 +28°C° 0 mm 2 m/s 744 mmHg 64%
14:00 +28°C° 0 mm 2 m/s 743 mmHg 63%
15:00 +28°C° 0 mm 2 m/s 743 mmHg 66%
16:00 +28°C° 0 mm 2 m/s 743 mmHg 68%
17:00 +28°C° 0 mm 2 m/s 743 mmHg 70%
18:00 +27°C° 0 mm 1 m/s 743 mmHg 74%
19:00 +25°C° 0 mm 1 m/s 743 mmHg 79%
20:00 +24°C° 0 mm 1 m/s 743 mmHg 83%
21:00 +23°C° 0 mm 1 m/s 743 mmHg 84%
22:00 +23°C° 0 mm 1 m/s 743 mmHg 86%
23:00 +22°C° 0 mm 1 m/s 742 mmHg 88%

7 Juillet, Mardi

Heure Température Précipitation Vent Pression Humidité
00:00 +21°C° 0.2 mm 2 m/s 742 mmHg 89%
01:00 +20°C° 0.2 mm 2 m/s 742 mmHg 90%
02:00 +20°C° 0.2 mm 2 m/s 742 mmHg 91%
03:00 +20°C° 0 mm 2 m/s 742 mmHg 91%
04:00 +21°C° 0 mm 2 m/s 742 mmHg 90%
05:00 +21°C° 0 mm 2 m/s 742 mmHg 90%
06:00 +23°C° 0 mm 2 m/s 742 mmHg 85%
07:00 +25°C° 0 mm 2 m/s 742 mmHg 80%
08:00 +26°C° 0 mm 2 m/s 741 mmHg 76%
09:00 +27°C° 0 mm 2 m/s 741 mmHg 71%
10:00 +29°C° 0 mm 2 m/s 741 mmHg 67%
11:00 +30°C° 0 mm 2 m/s 741 mmHg 62%
12:00 +30°C° 0 mm 2 m/s 741 mmHg 61%
13:00 +31°C° 0 mm 2 m/s 741 mmHg 60%
14:00 +31°C° 0 mm 2 m/s 740 mmHg 59%
15:00 +30°C° 0.7 mm 2 m/s 740 mmHg 66%
16:00 +29°C° 0.7 mm 2 m/s 740 mmHg 72%
17:00 +28°C° 0.7 mm 1 m/s 740 mmHg 78%
18:00 +27°C° 0.4 mm 1 m/s 740 mmHg 80%
19:00 +26°C° 0.4 mm 1 m/s 740 mmHg 82%
20:00 +24°C° 0.4 mm 1 m/s 740 mmHg 84%
21:00 +24°C° 0.4 mm 2 m/s 740 mmHg 87%
22:00 +23°C° 0.4 mm 2 m/s 740 mmHg 91%
23:00 +21°C° 0.4 mm 3 m/s 740 mmHg 94%

8 Juillet, Mercredi

Heure Température Précipitation Vent Pression Humidité
00:00 +21°C° 1.7 mm 3 m/s 740 mmHg 95%
01:00 +20°C° 1.7 mm 4 m/s 740 mmHg 96%
02:00 +20°C° 1.7 mm 4 m/s 740 mmHg 97%
03:00 +19°C° 0.9 mm 4 m/s 740 mmHg 97%
04:00 +19°C° 0.9 mm 4 m/s 740 mmHg 96%
05:00 +19°C° 0.9 mm 4 m/s 740 mmHg 96%
06:00 +19°C° 0.2 mm 4 m/s 740 mmHg 95%
07:00 +19°C° 0.2 mm 4 m/s 741 mmHg 93%
08:00 +19°C° 0.2 mm 4 m/s 741 mmHg 92%
09:00 +20°C° 0 mm 4 m/s 741 mmHg 88%
10:00 +21°C° 0 mm 5 m/s 741 mmHg 84%
11:00 +22°C° 0 mm 5 m/s 742 mmHg 79%
12:00 +22°C° 0 mm 5 m/s 742 mmHg 76%
13:00 +23°C° 0 mm 4 m/s 742 mmHg 73%
14:00 +23°C° 0 mm 4 m/s 742 mmHg 71%
15:00 +23°C° 0 mm 4 m/s 742 mmHg 72%
16:00 +23°C° 0 mm 4 m/s 742 mmHg 74%
17:00 +24°C° 0 mm 3 m/s 742 mmHg 75%
18:00 +21°C° 0 mm 3 m/s 743 mmHg 76%
19:00 +20°C° 0 mm 3 m/s 743 mmHg 78%
20:00 +19°C° 0 mm 4 m/s 743 mmHg 79%
21:00 +18°C° 0 mm 4 m/s 743 mmHg 76%
22:00 +17°C° 0 mm 4 m/s 744 mmHg 73%
23:00 +16°C° 0 mm 5 m/s 744 mmHg 70%

9 Juillet, Jeudi

Heure Température Précipitation Vent Pression Humidité
00:00 +15°C° 0 mm 4 m/s 744 mmHg 74%
01:00 +14°C° 0 mm 4 m/s 744 mmHg 78%
02:00 +13°C° 0 mm 4 m/s 744 mmHg 82%
03:00 +13°C° 0 mm 4 m/s 744 mmHg 84%
04:00 +12°C° 0 mm 4 m/s 744 mmHg 85%
05:00 +12°C° 0 mm 4 m/s 745 mmHg 87%
06:00 +14°C° 0 mm 4 m/s 745 mmHg 83%
07:00 +15°C° 0 mm 4 m/s 745 mmHg 80%
08:00 +17°C° 0 mm 4 m/s 745 mmHg 76%
09:00 +18°C° 0 mm 4 m/s 745 mmHg 72%
10:00 +19°C° 0 mm 5 m/s 745 mmHg 68%
11:00 +20°C° 0 mm 5 m/s 745 mmHg 64%
12:00 +20°C° 0 mm 5 m/s 745 mmHg 62%
13:00 +20°C° 0 mm 5 m/s 745 mmHg 60%
14:00 +20°C° 0 mm 5 m/s 745 mmHg 59%
15:00 +20°C° 0 mm 5 m/s 745 mmHg 62%
16:00 +20°C° 0 mm 4 m/s 745 mmHg 65%
17:00 +19°C° 0 mm 4 m/s 745 mmHg 69%
18:00 +18°C° 0 mm 3 m/s 746 mmHg 72%
19:00 +16°C° 0 mm 3 m/s 746 mmHg 75%
20:00 +15°C° 0 mm 2 m/s 746 mmHg 77%
21:00 +14°C° 0 mm 2 m/s 746 mmHg 80%
22:00 +13°C° 0 mm 2 m/s 746 mmHg 82%
23:00 +13°C° 0 mm 2 m/s 746 mmHg 84%
Voir plus